Lapse_Rate
6.3 6.3 6.3 6.2 6.1 6.0 6.0 6.1 6.0 6.0 5.9 6.0 6.0 5.9 5.8 6.0 6.1 6.0 5.9 6.0 6.0 6.0 5.8 5.8 5.7 5.7 5.8 5.8 5.7 5.9 6.0 6.0 6.0
6.0 6.0 6.0 6.0 6.0 6.0 6.0 6.0 6.1 6.0 6.1 6.2 6.2 6.2 6.2 6.2 6.3 6.3 6.3 6.3 6.2 6.3 6.2 5.8 5.8 5.7 5.7 5.8 5.9 6.0 6.0 6.1 6.1
5.9 6.0 6.0 6.0 6.0 6.1 6.1 6.1 6.1 6.1 6.2 6.3 6.4 6.5 6.6 6.7 6.6 6.6 6.6 6.6 6.5 6.3 6.3 6.1 5.9 5.8 5.8 5.8 5.8 5.7 5.8 5.9 6.0
5.9 6.0 6.1 6.3 6.3 6.2 6.1 6.2 6.1 6.1 6.3 6.5 6.6 6.6 6.8 6.8 6.8 6.9 6.8 6.9 7.0 6.8 6.7 6.1 6.1 6.2 6.2 6.0 5.9 5.9 5.9 5.9 5.8
6.0 6.1 6.2 6.2 6.3 6.3 6.3 6.3 6.3 6.3 6.2 6.4 6.6 6.6 6.6 6.7 6.8 6.8 6.9 6.9 6.9 6.9 6.7 6.7 6.1 5.7 5.9 5.9 6.0 5.9 6.0 5.9 5.9
6.1 6.2 6.2 6.3 6.3 6.4 6.4 6.4 6.6 6.5 6.5 6.4 6.5 6.5 6.6 6.7 6.8 6.8 6.9 6.9 6.9 6.8 6.8 6.6 6.5 6.2 6.0 5.8 5.7 5.7 5.7 5.8 5.8
6.2 6.2 6.3 6.3 6.4 6.4 6.6 6.7 6.7 6.7 6.8 6.6 6.4 6.6 6.6 6.7 6.8 6.7 6.7 6.8 6.8 6.9 6.8 6.6 6.4 6.3 6.2 6.0 5.9 5.7 5.7 5.7 5.7
6.3 6.3 6.3 6.4 6.7 6.9 6.9 7.0 6.9 6.9 6.8 6.8 6.7 6.6 6.7 6.7 6.7 6.6 6.5 6.6 6.6 6.6 6.6 6.5 6.3 6.2 6.0 5.8 5.7 5.7 5.6 5.6 5.7
6.4 6.6 6.8 7.1 7.2 7.3 7.3 7.2 7.1 7.0 6.9 6.8 6.9 6.8 6.6 6.7 6.6 6.5 6.4 6.5 6.5 6.4 6.4 6.3 6.3 6.1 6.0 5.9 5.8 5.7 5.6 5.6 5.7
6.7 7.0 7.3 7.5 7.6 7.6 7.6 7.5 7.3 7.1 6.9 6.9 6.9 6.8 6.6 6.6 6.5 6.4 6.3 6.4 6.4 6.3 6.1 6.0 6.0 6.1 6.3 6.2 6.0 5.7 5.5 5.4 5.4
7.1 7.5 7.6 7.6 7.6 7.6 7.6 7.5 7.3 7.2 7.0 6.8 6.8 6.6 6.5 6.4 6.3 6.3 6.3 6.3 6.2 6.1 6.0 6.0 5.9 5.9 6.0 5.8 5.6 5.4 5.1 5.0 5.0
7.3 7.3 7.3 7.3 7.3 7.4 7.5 7.4 7.3 7.2 7.0 6.9 6.7 6.5 6.4 6.2 6.2 6.2 6.1 6.2 6.1 5.8 5.7 5.7 5.8 5.7 5.6 5.5 5.5 5.6 5.6 5.4 5.5
7.2 7.1 7.1 7.1 7.2 7.3 7.3 7.3 7.2 7.1 7.1 6.9 6.5 6.5 6.3 6.1 6.1 5.9 6.0 6.0 5.8 5.5 5.6 5.5 5.3 5.2 5.1 4.8 5.5 6.0 5.8 6.0 6.1
7.2 7.2 7.1 7.1 7.2 7.2 7.1 7.1 7.1 7.1 7.0 7.0 6.6 6.4 6.3 6.1 6.0 5.9 5.9 5.8 5.6 5.5 5.5 5.3 5.2 5.1 5.2 5.5 5.0 5.7 5.8 5.5 6.1
7.2 7.1 7.0 6.9 6.9 6.9 7.0 7.1 7.1 7.2 7.2 6.9 6.7 6.4 6.3 6.0 5.9 5.7 5.7 5.5 5.3 5.3 5.4 5.4 4.9 5.1 5.2 4.7 5.6 5.9 6.2 6.3 5.9
7.0 7.0 6.8 6.8 6.8 6.9 6.9 7.0 7.0 7.0 7.1 7.0 6.4 6.5 6.1 5.9 5.7 5.6 5.4 5.2 5.0 5.0 5.2 5.3 5.2 5.4 5.1 5.3 5.5 6.0 6.4 6.2 6.4
6.8 6.8 6.8 6.8 6.9 6.9 6.9 7.0 6.9 6.9 7.1 7.1 6.9 6.2 5.9 5.5 5.3 5.2 5.2 5.0 4.7 4.7 5.1 5.4 5.2 5.3 5.0 5.5 4.9 6.6 6.4 6.5 6.3
6.5 6.5 6.6 6.8 6.9 6.9 6.9 6.8 6.8 6.7 6.7 6.8 6.9 6.7 6.0 5.4 5.1 4.9 4.9 4.9 4.7 4.5 5.0 5.4 5.0 5.0 5.0 5.3 4.9 5.4 5.5 5.9 5.9
6.4 6.6 6.7 6.8 6.8 6.8 6.9 6.9 6.9 7.0 6.6 6.4 6.6 6.4 6.1 5.9 5.6 4.4 4.4 4.4 4.5 4.6 4.8 5.4 5.1 4.8 5.0 5.3 5.2 5.3 4.9 5.0 5.4
6.2 6.4 6.6 6.7 6.8 6.9 7.0 7.0 6.9 6.9 6.7 6.6 6.2 5.7 5.5 5.6 5.8 5.8 4.8 4.1 4.2 4.6 4.7 5.0 5.3 4.9 5.3 5.3 5.3 5.5 5.0 5.6 5.6
Wind_Speed
9 9 10 10 11 11 11 11 10 9 9 9 9 9 10 11 9 10 14 15 15 11 14 12 12 12 13 15 15 14 13 12 11
10 9 9 10 10 11 11 11 11 11 10 10 9 9 10 10 10 11 12 14 18 14 15 14 14 14 15 15 16 16 16 15 14
10 10 10 10 10 9 10 12 12 12 11 11 11 11 10 10 10 13 15 15 18 18 16 17 16 16 18 16 17 19 19 18 17
7 7 10 11 11 10 9 9 11 12 12 12 11 11 11 11 11 12 15 17 20 20 11 15 16 17 18 19 18 20 21 20 20
7 4 7 9 10 12 13 11 11 11 13 14 14 13 11 10 10 11 14 11 12 11 13 12 14 19 19 20 21 21 21 22 22
8 7 9 9 11 12 14 13 14 11 12 12 14 12 11 11 8 7 8 8 10 11 13 13 13 13 14 16 21 22 23 23 24
13 13 8 11 11 13 16 15 15 13 12 13 14 12 11 9 10 11 13 13 13 13 14 15 16 17 18 19 19 17 23 26 26
15 15 14 11 12 14 16 16 15 12 11 10 10 11 10 9 10 11 13 13 13 14 15 16 17 18 20 20 21 23 21 20 27
11 11 14 11 12 12 13 12 14 13 13 11 9 11 9 9 10 9 11 11 13 14 16 17 18 19 20 21 22 23 23 23 22
9 10 11 10 12 10 10 10 9 8 11 11 6 7 10 11 10 8 10 11 13 14 15 15 17 18 19 20 21 23 24 24 24
6 7 8 7 11 13 11 6 4 5 7 6 9 7 10 10 8 5 8 13 15 16 16 17 17 18 17 19 21 22 24 26 25
6 5 5 6 11 12 11 7 8 5 6 6 4 6 9 9 8 6 8 11 11 13 15 15 16 18 19 21 21 22 23 23 25
6 5 5 10 10 8 4 4 4 4 5 5 5 4 5 7 7 6 6 10 7 9 14 16 18 20 23 22 23 22 22 22 23
8 6 8 12 8 4 3 3 3 4 5 7 5 4 4 5 4 3 5 7 9 9 13 17 18 20 23 21 18 20 23 26 24
8 8 9 10 4 4 4 3 3 3 4 7 6 5 3 4 4 3 4 6 8 10 11 13 13 19 21 23 23 22 21 22 25
8 6 7 8 4 4 5 3 4 3 5 4 6 3 2 6 5 4 4 5 7 9 9 10 10 12 20 22 24 29 32 26 24
6 6 4 5 4 5 5 4 3 2 4 3 2 4 4 5 5 4 4 6 6 5 9 10 10 10 11 19 25 28 36 22 13
8 9 7 5 4 4 4 4 4 3 3 5 2 3 2 5 3 6 4 8 5 5 8 8 10 10 11 13 19 30 33 33 14
11 10 9 6 4 5 3 4 2 2 3 3 3 1 2 3 4 3 3 8 8 9 6 5 10 12 10 13 19 26 25 30 31
9 11 8 5 4 4 5 5 4 2 1 1 2 2 2 1 2 5 5 6 7 6 7 6 4 10 12 11 16 23 27 29 31
Wind_Direction
14 8 7 360 352 345 340 336 333 332 332 334 335 339 335 331 315 276 266 268 267 249 222 212 219 226 231 224 222 212 207 207 209
13 10 11 7 2 353 346 341 335 330 325 321 317 317 322 324 314 302 288 280 274 257 227 225 224 225 229 231 226 222 213 215 216
13 13 1 356 356 354 348 341 335 331 325 318 311 304 302 303 302 301 298 295 291 278 255 232 226 233 233 233 230 226 224 219 216
349 355 356 356 351 350 346 341 335 330 326 321 313 303 294 291 288 288 292 300 305 291 287 260 233 238 241 240 235 231 233 226 219
290 299 336 346 342 343 337 339 345 340 334 328 307 296 310 309 298 292 292 296 358 353 348 345 275 254 249 249 247 243 240 238 230
336 317 319 317 328 341 332 327 327 321 328 327 343 316 317 317 312 316 310 337 342 339 334 329 317 311 312 288 271 262 255 245 240
9 357 345 332 340 344 0 2 5 3 360 1 356 352 341 338 340 338 346 351 341 334 327 320 313 304 296 290 284 285 268 255 246
8 5 1 5 7 8 360 355 354 350 344 341 338 329 332 330 331 332 338 340 333 324 318 310 305 301 299 295 290 284 281 282 258
360 356 350 360 6 3 351 342 336 333 326 317 311 305 306 308 306 311 323 324 324 321 315 312 308 301 296 293 290 286 284 281 279
359 349 349 2 2 354 337 334 333 333 332 328 321 309 306 306 296 304 313 311 309 308 318 313 310 306 296 291 288 283 280 276 272
3 348 345 354 356 346 336 325 336 330 334 326 333 328 328 328 306 317 344 9 11 4 340 327 319 308 294 288 284 284 280 273 269
4 348 340 338 350 345 344 343 348 345 333 323 319 331 324 324 308 9 38 20 14 3 352 333 320 315 312 292 283 281 281 277 266
5 353 333 334 347 344 345 340 340 334 329 320 307 319 319 324 310 78 40 27 359 352 357 349 345 341 334 313 301 287 284 279 276
9 352 335 342 341 344 337 333 352 337 334 325 313 311 304 315 338 78 49 20 3 357 347 340 357 355 350 340 327 317 302 292 274
5 351 345 350 349 343 345 335 335 330 325 321 316 316 332 39 18 339 21 6 2 4 349 338 351 358 355 352 355 330 309 297 270
358 357 349 348 350 328 336 328 340 332 349 342 326 339 42 39 14 10 12 331 339 349 347 339 342 356 346 352 3 343 344 327 276
9 5 346 344 344 346 347 352 335 325 5 350 304 357 334 353 334 359 354 9 341 328 327 328 346 349 1 348 358 355 350 312 301
20 17 5 348 353 339 339 354 18 329 324 355 269 355 341 327 319 335 1 354 346 328 316 332 334 347 9 7 358 353 359 353 303
36 16 5 355 346 349 336 354 336 4 335 335 11 33 257 321 321 342 346 356 334 323 328 323 329 352 11 15 14 360 4 8 30
16 7 0 353 353 347 350 346 347 329 305 291 319 314 309 231 275 306 327 322 323 315 317 311 334 351 4 38 16 15 10 12 24